Latest Weather Observations for Ballarat

IDV60801

Issued at 9:05 am EDT Friday 24 October 2014 (issued every 30 minutes, with the page automatically refreshed every 10 minutes)

About weather observations | Map of weather stations | Latest weather observations for VIC | Other Formats
Station Details ID: 089002 Name: BALLARAT AERODROME Lat: -37.51 Lon: 143.79 Height: 435.2 m
Data from the previous 72 hours. | See also: Recent months at Ballarat
Date/Time
EDT
Temp
°C
App
Temp
°C
Dew
Point
Rel
Hum
%
Delta-T
°C
Wind Press
QNH
hPa
Press
MSL
hPa
Rain
since 9 am
mm
Dir
 
Spd
km/h
Gust
km/h
Spd
kts
Gust
kts
24/09:00am 17.3 17.1 15.8 91 0.9 NNW 11 13 6 7 1013.3 1013.1 0.0
24/08:30am 14.1 15.4 14.1 100 0.0 NW 0 7 0 4 1013.0 1012.9 0.0
24/08:04am 12.0 12.6 12.0 100 0.0 NW 0 0 0 0 1013.0 1012.9 0.0
24/08:00am 11.8 12.4 11.8 100 0.0 CALM 0 4 0 2 1013.0 1012.9 0.0
24/07:30am 10.3 8.3 10.3 100 0.0 W 11 15 6 8 1013.1 1013.0 0.0
24/07:28am 10.3 8.3 10.3 100 0.0 W 11 15 6 8 1013.1 1013.0 0.0
24/07:27am 10.2 8.2 10.2 100 0.0 W 11 15 6 8 1013.1 1013.0 0.0
24/07:26am 10.2 8.6 10.2 100 0.0 W 9 13 5 7 1013.1 1013.0 0.0
24/07:25am 10.1 8.5 10.1 100 0.0 W 9 13 5 7 1013.0 1012.9 0.0
24/07:00am 8.7 7.7 8.7 100 0.0 NW 4 6 2 3 1012.7 1012.6 0.0
24/06:39am 8.5 7.4 8.5 100 0.0 W 4 7 2 4 1012.8 1012.7 0.0
24/06:30am 8.8 7.4 8.8 100 0.0 W 6 7 3 4 1012.8 1012.7 0.0
24/06:29am 8.8 7.4 8.8 100 0.0 W 6 7 3 4 1012.8 1012.7 0.0
24/06:00am 10.3 10.4 10.3 100 0.0 CALM 0 0 0 0 1012.5 1012.4 0.0
24/05:30am 10.6 9.5 10.6 100 0.0 ESE 7 9 4 5 1012.3 1012.2 0.0
24/05:00am 10.4 8.5 10.4 100 0.0 ESE 11 13 6 7 1012.7 1012.6 0.0
24/04:52am 10.4 8.5 10.4 100 0.0 SE 11 13 6 7 1012.7 1012.6 0.0
24/04:38am 10.4 8.1 10.4 100 0.0 SE 13 15 7 8 1012.7 1012.6 0.0
24/04:30am 10.1 8.5 10.1 100 0.0 SE 9 15 5 8 1012.7 1012.6 0.0
24/04:08am 10.8 8.6 10.8 100 0.0 SSE 13 15 7 8 1012.6 1012.5 0.0
24/04:00am 10.8 8.6 10.8 100 0.0 S 13 15 7 8 1012.6 1012.5 0.0
24/03:41am 11.1 9.0 11.1 100 0.0 S 13 15 7 8 1012.7 1012.6 0.0
24/03:30am 11.2 9.4 11.0 99 0.1 S 11 13 6 7 1012.7 1012.6 0.0
24/03:00am 11.7 10.1 11.5 99 0.1 SSE 11 15 6 8 1012.8 1012.7 0.0
24/02:30am 11.8 9.8 11.6 99 0.1 SSE 13 15 7 8 1013.1 1013.0 0.0
24/02:00am 12.0 9.8 12.0 100 0.0 SSE 15 19 8 10 1013.4 1013.2 0.0
24/01:30am 12.1 9.5 12.1 100 0.0 SE 17 20 9 11 1013.7 1013.6 0.0
24/01:00am 12.2 9.1 12.2 100 0.0 SE 20 28 11 15 1014.4 1014.3 0.0
24/12:30am 12.2 9.3 12.2 100 0.0 SE 19 24 10 13 1014.7 1014.6 0.0
24/12:07am 12.4 9.5 12.4 100 0.0 SE 19 24 10 13 1014.9 1014.8 0.0
24/12:00am 12.4 9.5 12.4 100 0.0 SE 19 26 10 14 1014.9 1014.8 0.0
 
Date/Time
EDT
Temp
°C
App
Temp
°C
Dew
Point
Rel
Hum
%
Delta-T
°C
Wind Press
QNH
hPa
Press
MSL
hPa
Rain
since 9 am
mm
Dir
 
Spd
km/h
Gust
km/h
Spd
kts
Gust
kts
23/11:44pm 12.6 8.9 12.6 100 0.0 SE 24 32 13 17 1015.1 1015.0 0.0
23/11:30pm 12.6 8.4 12.4 99 0.1 SE 26 33 14 18 1015.2 1015.1 0.0
23/11:02pm 12.8 8.7 12.6 99 0.1 SE 26 33 14 18 1015.7 1015.6 0.0
23/11:00pm 12.8 8.3 12.6 99 0.1 SE 28 33 15 18 1015.7 1015.6 0.0
23/10:30pm 13.3 9.3 13.1 99 0.1 SE 26 35 14 19 1015.8 1015.7 0.0
23/10:12pm 13.4 8.7 13.2 99 0.1 SE 30 41 16 22 1015.7 1015.6 0.0
23/10:00pm 13.5 8.5 13.3 99 0.1 SE 32 41 17 22 1015.5 1015.4 0.0
23/09:30pm 13.4 7.8 13.2 99 0.1 ESE 35 46 19 25 1015.7 1015.6 0.0
23/09:00pm 13.5 8.3 13.3 99 0.1 SE 33 44 18 24 1015.5 1015.4 0.0
23/08:30pm 13.7 8.1 13.4 98 0.2 SE 35 43 19 23 1015.2 1015.1 0.0
23/08:00pm 13.8 9.2 13.5 98 0.2 SE 30 37 16 20 1015.2 1015.1 0.0
23/07:30pm 14.6 10.2 13.0 90 0.9 SE 28 37 15 20 1015.1 1015.0 0.0
23/07:00pm 15.8 11.5 13.1 84 1.5 SE 28 37 15 20 1015.2 1015.1 0.0
23/06:30pm 16.5 11.6 12.7 78 2.1 SE 30 37 16 20 1015.1 1015.0 0.0
23/06:00pm 17.3 12.5 13.0 76 2.5 SE 30 37 16 20 1015.1 1015.0 0.0
23/05:30pm 18.1 13.9 13.4 74 2.7 SE 28 35 15 19 1015.1 1015.0 0.0
23/05:00pm 19.3 15.6 13.9 71 3.2 SE 26 35 14 19 1015.3 1015.2 0.0
23/04:30pm 19.3 15.5 13.7 70 3.3 SE 26 33 14 18 1015.3 1015.2 0.0
23/04:00pm 19.6 15.2 14.2 71 3.2 ESE 30 37 16 20 1015.5 1015.4 0.0
23/03:30pm 19.4 16.3 14.4 73 3.0 SE 24 30 13 16 1016.0 1015.9 0.0
23/03:00pm 19.0 14.8 13.6 71 3.1 SE 28 37 15 20 1016.2 1016.1 0.0
23/02:30pm 19.1 15.6 14.6 75 2.7 SSE 26 33 14 18 1016.6 1016.5 0.0
23/02:00pm 18.7 14.3 14.0 74 2.7 SE 30 37 16 20 1016.8 1016.7 0.0
23/01:30pm 18.1 13.9 13.4 74 2.7 ESE 28 33 15 18 1017.2 1017.1 0.0
23/01:00pm 17.8 14.0 13.7 77 2.4 SE 26 32 14 17 1017.4 1017.3 0.0
23/12:30pm 17.5 12.9 13.6 78 2.3 SE 30 37 16 20 1017.8 1017.8 0.0
23/12:00pm 17.1 12.8 13.2 78 2.2 SE 28 37 15 20 1018.0 1018.0 0.0
23/11:30am 16.3 11.9 13.0 81 1.9 SE 28 35 15 19 1018.4 1018.3 0.0
23/11:00am 15.5 10.9 13.5 88 1.1 SE 30 37 16 20 1018.8 1018.7 0.0
23/10:30am 14.5 9.6 13.7 95 0.5 SE 32 39 17 21 1019.1 1019.0 0.0
23/10:00am 13.5 8.2 13.2 98 0.2 SE 33 43 18 23 1019.3 1019.2 0.0
23/09:30am 12.9 8.0 12.7 99 0.1 SE 30 39 16 21 1019.3 1019.2 0.0
23/09:00am 12.6 7.7 12.4 99 0.1 SE 30 39 16 21 1019.3 1019.2 0.0
23/08:30am 12.1 7.4 11.9 99 0.1 SE 28 37 15 20 1019.5 1019.5 0.0
23/08:00am 11.8 6.7 11.8 100 0.0 SE 30 43 16 23 1019.3 1019.2 0.0
23/07:30am 11.5 5.9 11.5 100 0.0 SE 32 39 17 21 1019.0 1018.9 0.0
23/07:00am 11.6 7.5 11.6 100 0.0 SSE 24 32 13 17 1018.9 1018.8 0.0
23/06:30am 11.9 8.7 11.9 100 0.0 SSE 20 30 11 16 1019.0 1018.9 0.0
23/06:00am 11.9 7.9 11.9 100 0.0 SE 24 30 13 16 1018.7 1018.6 0.0
23/05:30am 11.8 8.8 11.8 100 0.0 SSE 19 28 10 15 1018.6 1018.5 0.0
23/05:00am 11.6 8.5 11.6 100 0.0 SSE 19 28 10 15 1018.4 1018.3 0.0
23/04:30am 11.3 7.5 11.3 100 0.0 SSE 22 28 12 15 1018.4 1018.3 0.0
23/04:00am 11.2 8.4 11.2 100 0.0 SSE 17 24 9 13 1018.7 1018.6 0.0
23/03:30am 11.1 8.6 11.1 100 0.0 SSE 15 19 8 10 1018.8 1018.7 0.0
23/03:08am 11.1 7.9 11.1 100 0.0 S 19 22 10 12 1019.1 1019.0 0.0
23/03:00am 11.1 8.6 11.1 100 0.0 S 15 22 8 12 1019.1 1019.0 0.0
23/02:30am 10.9 7.4 10.9 100 0.0 S 20 28 11 15 1019.0 1018.9 0.0
23/02:00am 11.3 7.5 11.3 100 0.0 S 22 30 12 16 1019.0 1018.9 0.0
23/01:30am 11.6 8.5 11.6 100 0.0 S 19 26 10 14 1019.3 1019.2 0.0
23/01:00am 11.9 10.0 11.9 100 0.0 SSW 13 20 7 11 1019.2 1019.1 0.0
23/12:30am 12.4 11.1 12.4 100 0.0 SSW 11 17 6 9 1019.2 1019.1 0.0
23/12:00am 12.6 11.3 12.6 100 0.0 SSW 11 17 6 9 1019.2 1019.1 0.0
 
Date/Time
EDT
Temp
°C
App
Temp
°C
Dew
Point
Rel
Hum
%
Delta-T
°C
Wind Press
QNH
hPa
Press
MSL
hPa
Rain
since 9 am
mm
Dir
 
Spd
km/h
Gust
km/h
Spd
kts
Gust
kts
22/11:30pm 12.9 11.3 12.9 100 0.0 SSW 13 19 7 10 1019.3 1019.2 0.0
22/11:10pm 13.0 10.6 12.8 99 0.1 SW 17 24 9 13 1019.5 1019.5 0.0
22/11:07pm 13.1 10.8 12.9 99 0.1 SW 17 24 9 13 1019.5 1019.5 0.0
22/11:00pm 13.4 10.8 13.1 98 0.2 SW 19 22 10 12 1019.6 1019.6 0.0
22/10:30pm 14.0 12.9 10.8 81 1.7 SSE 7 11 4 6 1019.5 1019.5 0.0
22/10:00pm 16.7 15.1 11.4 71 2.9 S 11 17 6 9 1019.5 1019.5 0.0
22/09:30pm 16.5 14.4 11.0 70 3.0 SE 13 17 7 9 1019.1 1019.0 0.0
22/09:00pm 17.4 15.3 11.0 66 3.5 S 13 17 7 9 1018.5 1018.4 0.0
22/08:30pm 19.2 16.6 10.7 58 4.7 S 15 20 8 11 1018.8 1018.7 0.0
22/08:00pm 20.5 16.3 11.2 55 5.2 WSW 24 33 13 18 1019.1 1019.0 0.0
22/07:36pm 21.7 15.8 12.5 56 5.3 W 35 43 19 23 1018.3 1018.2 0.0
22/07:31pm 21.8 14.8 12.4 55 5.4 NW 41 63 22 34 1018.2 1018.1 0.0
22/07:30pm 22.0 16.1 12.5 54 5.5 NW 35 52 19 28 1018.2 1018.1 0.0
22/07:00pm 22.7 22.5 13.7 56 5.3 NW 7 11 4 6 1017.1 1017.0 0.0
22/06:30pm 23.6 21.2 12.6 50 6.4 N 17 19 9 10 1016.7 1016.6 0.0
22/06:00pm 25.8 22.4 11.2 40 8.4 NNE 20 28 11 15 1016.4 1016.3 0.0
22/05:30pm 25.1 21.0 11.3 42 7.9 N 24 32 13 17 1016.5 1016.4 0.0
22/05:00pm 25.1 20.0 10.6 40 8.2 N 28 32 15 17 1016.6 1016.5 0.0
22/04:30pm 26.0 20.7 9.8 36 9.1 N 28 37 15 20 1016.9 1016.8 0.0
22/04:00pm 26.3 21.6 12.0 41 8.4 N 28 35 15 19 1017.3 1017.2 0.0
22/03:30pm 25.9 21.6 10.9 39 8.6 NNE 24 32 13 17 1017.5 1017.4 0.0
22/03:00pm 24.1 20.4 12.7 49 6.7 N 24 32 13 17 1018.2 1018.1 0.0
22/02:30pm 24.2 19.7 11.5 45 7.3 N 26 32 14 17 1018.0 1018.0 0.0
22/02:00pm 24.0 19.3 12.0 47 6.9 N 28 37 15 20 1018.4 1018.3 0.0
22/01:30pm 25.1 20.4 12.0 44 7.6 N 28 39 15 21 1018.6 1018.5 0.0
22/01:00pm 24.2 19.1 11.9 46 7.1 N 30 37 16 20 1018.9 1018.8 0.0
22/12:30pm 22.4 17.5 12.4 53 5.8 N 30 37 16 20 1019.2 1019.1 0.0
22/12:00pm 22.6 17.9 12.0 51 6.1 N 28 37 15 20 1019.5 1019.5 0.0
22/11:30am 22.1 16.6 11.8 52 5.9 N 32 37 17 20 1019.8 1019.8 0.0
22/11:00am 20.8 15.6 12.8 60 4.6 N 32 37 17 20 1020.2 1020.2 0.0
22/10:30am 20.0 15.5 12.5 62 4.3 N 28 35 15 19 1020.6 1020.5 0.0
22/10:00am 19.9 15.3 12.2 61 4.4 NNE 28 39 15 21 1020.7 1020.6 0.0
22/09:30am 18.7 14.1 12.2 66 3.7 N 28 37 15 20 1021.0 1020.9 0.0
22/09:00am 16.8 10.9 10.6 67 3.4 NNE 32 39 17 21 1021.0 1020.9 0.0
22/08:30am 16.3 10.8 10.4 68 3.2 NNE 30 39 16 21 1021.0 1020.9 0.0
22/08:00am 16.6 11.9 10.7 68 3.2 NNE 26 37 14 20 1020.8 1020.7 0.0
22/07:30am 15.3 10.1 10.1 71 2.8 NNE 28 35 15 19 1020.6 1020.5 0.0
22/07:00am 14.7 9.4 9.9 73 2.5 NNE 28 37 15 20 1020.7 1020.6 0.0
22/06:30am 14.6 9.7 9.8 73 2.5 NNE 26 33 14 18 1020.9 1020.8 0.0
22/06:00am 15.0 10.1 10.0 72 2.7 NNE 26 33 14 18 1021.0 1020.9 0.0
22/05:30am 14.8 9.5 10.0 73 2.6 NNE 28 37 15 20 1020.7 1020.6 0.0
22/05:00am 15.1 9.8 9.9 71 2.8 NNE 28 35 15 19 1020.8 1020.7 0.0
22/04:30am 15.1 9.8 9.7 70 2.9 NNE 28 35 15 19 1020.7 1020.6 0.0
22/04:00am 15.2 11.0 9.6 69 3.0 NNE 22 28 12 15 1020.8 1020.7 0.0
22/03:30am 14.9 11.0 8.8 67 3.2 NNE 19 22 10 12 1021.0 1020.9 0.0
22/03:00am 15.4 11.5 9.3 67 3.2 NE 20 24 11 13 1021.1 1021.0 0.0
22/02:30am 15.8 12.0 9.7 67 3.2 NNE 20 24 11 13 1021.4 1021.3 0.0
22/02:00am 15.2 11.6 10.0 71 2.8 NNE 19 20 10 11 1021.8 1021.8 0.0
22/01:30am 14.3 11.0 9.5 73 2.5 NNE 17 19 9 10 1022.3 1022.3 0.0
22/01:00am 14.0 11.0 9.2 73 2.5 NNE 15 17 8 9 1022.7 1022.7 0.0
22/12:30am 14.7 11.5 9.9 73 2.5 NNE 17 19 9 10 1022.8 1022.8 0.0
22/12:00am 13.7 11.3 10.1 79 1.9 NE 13 15 7 8 1023.2 1023.1 0.0
 
Date/Time
EDT
Temp
°C
App
Temp
°C
Dew
Point
Rel
Hum
%
Delta-T
°C
Wind Press
QNH
hPa
Press
MSL
hPa
Rain
since 9 am
mm
Dir
 
Spd
km/h
Gust
km/h
Spd
kts
Gust
kts
21/11:30pm 13.7 10.8 9.6 76 2.2 NE 15 17 8 9 1023.4 1023.3 0.0
21/11:00pm 15.2 12.0 9.8 70 2.9 NNE 17 20 9 11 1023.8 1023.8 0.0
21/10:30pm 15.7 12.1 9.8 68 3.1 NNE 19 20 10 11 1023.8 1023.8 0.0
21/10:00pm 16.0 12.8 9.9 67 3.2 NE 17 19 9 10 1024.0 1024.0 0.0
21/09:30pm 15.3 12.8 9.7 69 3.0 NE 13 17 7 9 1024.0 1024.0 0.0
21/09:00pm 15.8 13.4 10.1 69 3.0 NNE 13 17 7 9 1023.7 1023.7 0.0
21/08:30pm 16.8 15.2 10.2 65 3.6 NE 9 11 5 6 1023.6 1023.6 0.0
21/08:00pm 18.8 17.5 11.1 61 4.3 NE 9 11 5 6 1023.6 1023.6 0.0
21/07:30pm 19.9 18.7 11.7 59 4.6 NE 9 11 5 6 1023.5 1023.5 0.0
21/07:00pm 20.5 19.3 11.7 57 5.0 NNE 9 11 5 6 1023.3 1023.2 0.0
21/06:30pm 21.3 19.1 10.8 51 5.9 N 13 15 7 8 1023.4 1023.3 0.0
21/06:00pm 22.0 20.0 10.2 47 6.5 N 11 15 6 8 1023.5 1023.5 0.0
21/05:30pm 22.2 19.2 9.4 44 7.0 N 15 17 8 9 1023.6 1023.6 0.0
21/05:00pm 23.4 19.2 7.5 36 8.5 N 19 24 10 13 1023.6 1023.6 0.0
21/04:30pm 23.7 20.2 8.9 39 8.1 N 17 22 9 12 1023.7 1023.7 0.0
21/04:00pm 23.5 20.6 10.9 45 7.1 NNE 17 24 9 13 1023.8 1023.8 0.0
21/03:30pm 23.6 20.8 12.6 50 6.4 N 19 28 10 15 1024.1 1024.1 0.0
21/03:00pm 23.2 19.4 9.9 43 7.4 N 20 28 11 15 1024.5 1024.5 0.0
21/02:30pm 21.9 18.3 10.7 49 6.3 N 20 28 11 15 1024.8 1024.8 0.0
21/02:00pm 22.7 19.4 11.7 49 6.3 NNE 20 30 11 16 1025.2 1025.2 0.0
21/01:30pm 21.5 18.0 12.1 55 5.4 NNE 22 33 12 18 1025.6 1025.6 0.0
21/01:00pm 20.9 16.8 11.5 55 5.3 NNE 24 32 13 17 1025.7 1025.7 0.0
21/12:30pm 19.9 14.8 10.6 55 5.2 NNE 28 35 15 19 1026.1 1026.1 0.0
21/12:00pm 19.1 13.0 10.6 58 4.7 NNE 33 43 18 23 1026.2 1026.2 0.0
21/11:30am 18.7 13.3 11.0 61 4.3 NNE 30 37 16 20 1026.3 1026.3 0.0
21/11:00am 18.2 12.8 10.8 62 4.1 NNE 30 39 16 21 1026.4 1026.4 0.0
21/10:30am 16.9 10.8 9.6 62 3.9 N 32 46 17 25 1026.4 1026.4 0.0
21/10:00am 15.9 9.1 9.3 65 3.5 NNE 35 46 19 25 1026.5 1026.5 0.0
21/09:30am 15.5 8.4 9.6 68 3.1 NNE 37 46 20 25 1026.4 1026.4 0.0

Other Formats:

Comma delimited format used in spreadsheet applications
http://www.bom.gov.au/fwo/IDV60801/IDV60801.94852.axf

JavaScript Object Notation format (JSON) in row-major order
http://www.bom.gov.au/fwo/IDV60801/IDV60801.94852.json